Easton, MD

6:37 PM EST on November 21, 2019 (GMT -0500)
Easton / Newnam

Weather History for KESN - July, 2019

Change the Weather History Date:

Tuesday, July 30, 2019

  Actual Average Record
Temperature  
Mean Temperature 86 °F -  
Max Temperature 96 °F 85 °F 96 °F (1954)
Min Temperature 76 °F 65 °F 56 °F (1956)
Cooling Degree Days 21    
Growing Degree Days 36 (Base 50)    
Moisture  
Dew Point 70 °F    
Average Humidity 67    
Maximum Humidity 87    
Minimum Humidity 30    
Precipitation  
Precipitation 0.00 in - - ()
Sea Level Pressure  
Sea Level Pressure 30.04 in    
Wind  
Wind Speed 6 mph (South)    
Max Wind Speed 13 mph    
Max Gust Speed 17 mph    
Visibility 10 miles    
Events      
Averages and records for this station are not official NWS values.
T = Trace of Precipitation, MM = Missing Value Source: NWS Daily Summary

Daily Weather History Graph

Daily Weather History Graph

Search for Another Location

Airport or City:

Astronomy

Jul. 30, 2019 Rise Set
Actual Time 6:03 AM EDT 8:17 PM EDT
Civil Twilight 5:33 AM EDT 8:47 PM EDT
Nautical Twilight 4:57 AM EDT 9:23 PM EDT
Astronomical Twilight 4:16 AM EDT 10:03 PM EDT
Moon 4:10 AM EDT (7/30) 7:19 PM EDT (7/30)
Length of Visible Light 15h 13m
Length of Day
14h 13m
Waning Crescent, 3% of the Moon is Illuminated
Jul 30
Waning Crescent
Jul 31
New
Aug 7
First Quarter
Aug 15
Full
Aug 23
Last Quarter

Hourly Weather History & Observations

Time (EDT) Temp. Heat Index Dew Point Humidity Pressure Visibility Wind Dir Wind Speed Gust Speed Precip Events Conditions
12:18 AM 81.5 °F 87.2 °F 73.9 °F 78% 30.05 in 10.0 mi South 4.6 mph - N/A   Clear
12:38 AM 81.1 °F 86.6 °F 73.9 °F 79% 30.05 in 10.0 mi South 6.9 mph - N/A   Clear
12:58 AM 80.8 °F 85.9 °F 73.9 °F 80% 30.05 in 10.0 mi South 6.9 mph - N/A   Clear
1:18 AM 80.4 °F 85.3 °F 73.9 °F 81% 30.05 in 10.0 mi South 5.8 mph - N/A   Clear
1:38 AM 79.9 °F - 74.3 °F 83% 30.04 in 10.0 mi South 5.8 mph - N/A   Clear
1:58 AM 79.7 °F - 74.3 °F 83% 30.04 in 10.0 mi South 5.8 mph - N/A   Clear
2:18 AM 79.7 °F - 74.5 °F 84% 30.03 in 10.0 mi South 5.8 mph - N/A   Clear
2:38 AM 78.6 °F - 74.3 °F 87% 30.04 in 10.0 mi South 3.5 mph - N/A   Clear
2:58 AM 79.5 °F - 74.1 °F 83% 30.03 in 10.0 mi South 6.9 mph - N/A   Clear
3:18 AM 79.3 °F - 72.7 °F 80% 30.04 in 10.0 mi South 5.8 mph - N/A   Clear
3:38 AM 78.4 °F - 71.8 °F 80% 30.04 in 10.0 mi SSW 4.6 mph - N/A   Clear
3:58 AM 77.9 °F - 71.6 °F 81% 30.03 in 10.0 mi South 5.8 mph - N/A   Clear
4:18 AM 78.8 °F - 71.2 °F 78% 30.03 in 10.0 mi South 3.5 mph - N/A   Clear
4:38 AM 77.2 °F - 71.1 °F 81% 30.04 in 10.0 mi South 3.5 mph - N/A   Clear
4:58 AM 77.5 °F - 70.9 °F 80% 30.04 in 10.0 mi South 3.5 mph - N/A   Clear
5:18 AM 76.3 °F - 70.7 °F 83% 30.04 in 10.0 mi South 4.6 mph - N/A   Clear
5:38 AM 77.0 °F - 71.1 °F 82% 30.04 in 10.0 mi South 5.8 mph - N/A   Clear
5:41 AM 77.0 °F - 70.9 °F 81% 30.04 in 10.0 mi South 5.8 mph - N/A   Clear
5:45 AM 77.0 °F - 71.6 °F 83% 30.04 in 10.0 mi South 4.6 mph - N/A   Clear
6:45 AM 77.0 °F - 71.6 °F 83% 30.05 in 10.0 mi South 4.6 mph - N/A   Clear
7:50 AM 80.6 °F 83.9 °F 69.8 °F 70% 30.06 in 10.0 mi South 5.8 mph - N/A   Clear
8:50 AM 84.2 °F 88.4 °F 69.8 °F 62% 30.07 in 10.0 mi SW 6.9 mph - N/A   Clear
9:49 AM 87.8 °F 91.4 °F 68.0 °F 52% 30.07 in 10.0 mi South 9.2 mph - N/A   Clear
10:50 AM 87.8 °F 91.4 °F 68.0 °F 52% 30.07 in 10.0 mi SSW 9.2 mph - N/A   Clear
11:50 AM 91.4 °F 94.0 °F 66.2 °F 43% 30.07 in 10.0 mi SSW 9.2 mph - N/A   Clear
12:50 PM 93.2 °F 94.9 °F 64.4 °F 38% 30.06 in 10.0 mi SSW 8.1 mph - N/A   Partly Cloudy
1:45 PM 95.0 °F 96.0 °F 62.6 °F 34% 30.05 in 10.0 mi SW 11.5 mph 16.1 mph N/A   Partly Cloudy
2:45 PM 96.8 °F 97.1 °F 60.8 °F 30% 30.03 in 10.0 mi South 9.2 mph 17.3 mph N/A   Partly Cloudy
3:45 PM 96.8 °F 98.0 °F 62.6 °F 32% 30.01 in 10.0 mi SW 6.9 mph 17.3 mph N/A   Partly Cloudy
4:45 PM 96.8 °F 100.7 °F 66.2 °F 37% 30.00 in 10.0 mi SSE 8.1 mph 17.3 mph N/A   Partly Cloudy
5:45 PM 93.2 °F 94.9 °F 64.4 °F 38% 30.00 in 10.0 mi SSE 12.7 mph - N/A   Clear
6:45 PM 91.4 °F 92.1 °F 62.6 °F 38% 30.01 in 10.0 mi SSE 10.4 mph - N/A   Clear
7:45 PM 87.8 °F 89.4 °F 64.4 °F 46% 30.01 in 10.0 mi SSE 10.4 mph - N/A   Clear
9:45 PM 82.4 °F 87.2 °F 71.6 °F 70% 30.05 in 10.0 mi SSE 9.2 mph - N/A   Clear
10:18 PM 82.4 °F 86.7 °F 71.1 °F 68% 30.05 in 10.0 mi SSE 10.4 mph - N/A   Clear
10:38 PM 81.9 °F 86.0 °F 70.7 °F 69% 30.05 in 10.0 mi South 9.2 mph - N/A   Clear
10:58 PM 81.0 °F 84.6 °F 70.2 °F 70% 30.05 in 10.0 mi SSE 9.2 mph - N/A   Clear
11:18 PM 80.6 °F 83.9 °F 70.0 °F 70% 30.05 in 10.0 mi South 6.9 mph - N/A   Clear
11:38 PM 80.6 °F 83.9 °F 69.8 °F 70% 30.05 in 10.0 mi South 6.9 mph - N/A   Clear
11:58 PM 79.9 °F - 70.2 °F 72% 30.05 in 10.0 mi South 5.8 mph - N/A   Clear